Theta_e
274 274 274 274 273 273 273 274 275 276 276 277 277 278 278 278 278 279 279 278 279 280
273 272 272 272 272 272 273 274 274 275 274 275 276 276 276 277 277 277 278 278 278 278
271 271 271 271 271 271 272 272 272 273 273 274 274 275 275 275 276 276 277 277 277 277
270 270 270 270 270 271 271 271 271 271 271 272 272 273 273 273 274 274 275 275 275 276
269 269 269 269 270 270 270 270 270 270 270 270 270 270 270 270 271 271 272 273 274 274
268 268 268 268 268 269 268 268 268 268 267 267 268 267 268 268 269 270 270 272 272 273
267 267 267 267 267 267 267 266 266 266 266 266 266 266 266 266 267 268 269 270 272 272
267 267 267 266 267 266 266 265 265 264 264 265 265 265 266 268 269 270 271 272 272 273
266 266 265 265 265 264 264 264 263 264 264 263 265 268 270 271 270 271 271 271 272 274
264 263 263 263 263 262 262 262 263 263 263 263 264 268 271 272 271 270 271 271 272 273
263 261 262 261 261 261 262 262 262 262 262 263 265 269 271 272 271 271 272 273 274 274
261 259 259 257 259 260 261 261 260 262 263 262 263 268 271 272 270 270 271 273 274 275
260 257 257 258 258 260 259 260 262 262 262 263 264 268 271 272 271 269 270 271 273 275
259 257 256 257 258 258 258 260 259 261 263 265 266 267 271 273 271 270 270 271 272 274
Wind_Speed
4 4 5 7 7 7 8 9 12 12 13 16 16 14 15 13 13 15 14 19 16 13
4 5 6 8 8 7 9 10 12 14 16 16 16 17 17 13 15 15 15 16 17 16
4 5 6 7 8 9 11 12 14 15 15 16 16 17 17 15 16 16 14 13 17 17
4 4 5 7 8 9 11 13 14 15 16 16 17 17 16 18 18 19 19 18 19 21
3 4 5 7 9 10 11 13 14 15 16 17 18 17 18 19 18 20 20 20 20 20
3 4 7 8 9 10 12 13 14 14 16 17 18 18 18 19 19 19 19 20 20 20
3 6 6 8 9 10 11 13 14 14 15 18 18 18 19 20 20 19 19 20 20 20
4 5 6 8 9 10 11 11 13 16 15 17 16 13 18 20 20 20 20 20 20 20
3 4 6 7 9 10 11 12 13 15 16 18 13 23 28 26 19 21 20 19 19 19
3 4 6 7 9 10 11 12 14 16 16 18 19 26 29 29 17 18 18 20 19 18
3 4 6 7 9 10 11 12 13 15 17 17 17 29 30 30 18 16 18 19 20 20
2 4 6 7 9 9 10 13 12 14 17 17 17 29 31 27 16 16 18 18 19 17
1 2 4 6 9 10 9 12 12 15 16 18 17 26 30 26 13 15 14 17 17 23
1 3 4 6 8 9 11 12 12 15 15 14 15 17 29 32 15 13 14 14 14 13
Wind_Direction
251 250 270 278 282 290 296 300 303 296 287 282 278 275 273 271 268 268 264 263 262 268
259 285 289 295 297 303 307 299 295 291 286 283 282 279 279 271 271 271 270 265 263 260
293 283 291 302 308 309 295 293 292 292 290 290 288 286 282 276 273 271 267 264 262 263
260 290 311 301 298 293 295 296 296 296 295 293 291 288 286 281 280 273 272 267 266 265
262 302 300 286 292 293 299 298 297 295 296 297 293 294 290 286 282 279 276 274 271 269
273 274 278 289 301 306 302 300 300 303 301 299 296 296 292 288 284 279 275 274 270 268
249 267 289 306 308 311 308 304 306 304 301 295 296 295 295 292 286 280 275 272 270 269
260 296 311 313 318 309 305 307 309 305 298 294 294 297 296 290 286 282 277 268 266 265
285 321 331 320 311 312 311 311 307 300 304 304 297 300 299 296 287 282 278 274 270 268
339 333 317 312 311 312 313 313 310 308 306 303 299 305 305 303 294 287 279 277 275 273
331 307 315 317 323 318 317 312 312 303 296 297 302 309 309 305 295 286 284 278 271 267
282 312 329 327 317 316 313 312 304 295 296 294 293 303 314 315 308 295 288 282 274 274
33 319 316 314 311 311 306 301 301 298 290 292 294 304 314 315 306 302 300 290 284 282
39 307 289 306 307 307 307 302 298 292 295 298 303 307 311 322 314 303 296 287 284 280